Snowfall_Accumulation
0.0 0.0 0.0 0.0 0.0 0.0 0.0 0.0 6.7 0.0 0.0 0.9 5.8 5.4 1.5 0.0 0.0 0.0 0.0 0.0 0.0 0.0 0.0 0.1 0.2 0.1 0.0 0.0 0.0 0.0 0.0 1.6 5.6 0.3 0.0 0.0 0.8 0.7 0.1 6.1 4.7 1.6 6.6 23.9
0.0 0.0 0.0 0.0 0.0 0.0 0.0 0.0 0.0 0.0 0.0 6.8 3.4 0.2 0.5 0.0 0.0 0.0 0.0 0.0 0.0 0.0 0.0 0.0 0.0 0.0 0.0 0.0 0.0 0.3 1.2 6.3 8.1 4.3 0.3 1.0 3.2 0.7 0.4 1.0 2.9 5.9 7.7 16.2
0.0 0.0 0.0 0.0 0.0 0.0 0.0 0.0 7.1 0.0 0.0 0.0 0.0 0.6 0.6 0.1 0.0 0.0 0.0 0.0 0.0 0.0 0.0 0.0 0.0 0.0 0.0 0.0 0.0 0.1 0.0 1.7 6.2 7.7 5.6 3.6 4.9 0.7 1.4 4.0 12.3 2.9 3.9 2.7
0.0 0.0 0.0 0.0 0.0 0.0 0.0 0.0 0.4 0.0 4.7 1.1 0.0 0.1 0.1 0.0 0.0 0.0 0.0 0.0 0.0 0.0 0.1 0.0 0.0 0.0 0.0 0.0 0.0 0.0 0.1 9.1 9.0 2.1 2.3 2.4 3.3 2.4 1.3 4.9 1.6 6.2 1.7 0.8
0.0 0.0 0.0 0.0 0.0 0.0 0.0 0.1 0.0 0.0 0.0 0.0 0.4 0.2 0.0 0.0 0.0 0.0 0.0 0.0 0.0 0.0 0.0 0.1 0.2 0.0 0.1 0.1 0.0 0.0 0.0 7.2 4.3 2.1 0.7 2.1 5.2 0.7 1.4 0.8 0.1 0.6 0.3 1.0
0.0 0.0 0.0 0.0 0.0 0.0 0.0 0.0 0.0 0.0 0.0 0.3 0.1 0.0 0.0 0.0 0.0 0.0 0.0 0.0 0.0 0.0 0.0 0.0 0.0 0.0 0.0 0.0 0.4 0.2 0.7 4.4 6.2 6.3 1.1 1.6 5.3 2.5 1.0 1.1 0.0 0.0 0.9 1.1
0.0 0.0 0.0 0.0 0.0 0.0 0.0 0.0 0.0 0.3 0.1 0.0 0.0 0.0 0.0 0.0 0.0 0.1 0.0 0.0 0.0 0.0 0.0 0.0 0.0 0.0 0.0 0.0 0.0 0.1 0.2 1.9 4.2 7.6 3.4 9.2 1.3 0.0 0.0 0.0 0.1 0.0 0.0 0.0
0.0 0.0 0.0 0.0 0.0 0.0 0.0 0.0 0.0 0.3 0.9 0.0 0.0 0.0 0.0 0.0 0.0 0.0 0.0 0.0 0.0 0.0 0.0 0.0 0.0 0.0 0.0 0.0 0.0 0.2 0.0 1.3 3.5 4.5 2.7 0.4 1.3 0.1 0.0 0.0 0.2 0.4 0.1 0.0
0.0 0.0 0.0 0.0 0.0 0.0 0.0 0.0 0.0 0.1 2.7 0.1 0.0 0.4 0.2 0.2 0.0 0.0 0.0 0.0 0.0 0.0 0.0 0.0 1.7 0.7 0.2 0.0 0.0 0.0 0.0 0.2 2.8 2.2 5.2 2.7 0.7 0.0 0.0 0.0 0.5 0.0 0.0 0.0
0.0 0.0 0.0 0.0 0.0 0.0 0.0 0.0 0.0 0.1 5.0 0.0 0.0 0.2 0.6 0.2 1.0 2.6 0.0 0.0 0.2 0.0 0.0 1.7 1.1 0.2 0.0 0.1 0.1 0.2 0.1 0.5 2.6 2.4 4.7 1.2 0.0 0.0 0.0 0.1 0.8 0.0 0.0 0.4
0.0 0.0 0.0 0.0 0.0 0.0 0.0 0.0 0.0 0.0 3.5 0.3 0.0 0.0 0.2 0.4 0.7 3.1 0.4 1.9 0.2 0.3 3.0 3.7 1.8 1.0 1.4 0.9 0.6 0.9 1.9 2.5 0.8 1.1 3.3 2.7 0.0 0.0 1.3 2.3 0.4 0.3 1.0 0.2
0.0 0.0 0.0 0.0 0.0 0.0 0.0 0.0 0.0 0.0 1.1 0.7 0.0 0.0 0.0 0.0 0.0 0.9 0.9 1.6 2.0 2.7 4.5 3.1 4.0 4.5 2.2 1.2 3.1 0.0 3.3 3.2 5.5 4.4 1.9 0.0 0.0 0.4 0.6 0.8 2.5 1.1 1.8 0.2
0.0 0.0 0.0 0.0 0.0 0.0 0.0 0.0 0.0 0.0 1.4 0.0 0.0 0.0 0.0 0.0 0.0 0.0 2.2 0.0 0.5 1.3 1.9 6.3 7.2 6.5 2.5 3.7 2.0 1.4 0.0 0.7 1.7 1.7 0.0 0.0 0.0 0.0 0.0 0.0 0.4 0.3 0.8 1.7
0.0 0.0 0.0 0.0 0.0 0.0 0.0 0.0 0.0 0.0 1.1 13.3 0.4 0.0 0.0 0.0 0.0 0.0 0.0 0.2 0.1 0.1 0.4 8.2 12.1 8.1 1.2 1.2 1.6 2.6 2.6 0.7 1.0 0.9 0.0 0.0 0.0 0.0 0.0 0.0 0.0 0.1 0.1 0.2
0.0 0.0 0.0 0.0 0.0 0.0 0.0 0.0 0.0 0.0 1.5 7.7 1.2 0.0 0.0 0.0 0.0 0.0 0.0 0.0 0.2 0.6 3.2 8.2 7.3 0.3 2.6 1.8 3.2 6.1 4.5 7.4 8.4 4.3 0.2 5.7 0.8 0.1 0.0 1.4 0.6 0.7 1.8 2.0
0.0 0.0 0.0 0.0 0.0 0.0 0.0 2.1 0.0 0.0 0.0 9.5 19.3 0.0 0.0 0.0 0.0 0.0 0.0 0.0 0.2 0.0 3.8 4.6 0.2 0.2 6.0 13.8 7.2 2.0 0.8 1.2 5.2 5.8 1.5 0.5 0.0 0.0 0.0 1.3 0.7 1.6 3.1 2.1
0.0 0.0 0.0 0.0 0.0 0.0 1.0 3.7 0.1 0.0 0.0 16.2 29.9 8.9 0.0 0.0 0.0 0.0 0.0 0.0 0.0 0.2 3.3 4.0 0.9 1.0 9.9 19.9 9.4 0.4 0.0 0.1 0.3 1.1 3.7 0.5 0.0 1.7 0.6 1.3 1.1 0.6 0.4 0.3
0.0 0.0 0.0 0.0 0.0 0.0 0.3 0.1 0.1 0.0 0.2 6.8 33.9 15.5 2.1 0.0 0.0 1.5 0.0 0.0 0.3 1.0 1.7 1.4 2.3 2.4 7.0 16.3 0.3 0.0 0.3 0.0 0.0 0.2 0.3 1.9 0.4 0.2 0.8 0.3 0.8 0.7 0.2 0.5
0.0 0.0 0.0 0.2 0.3 0.4 0.3 0.0 0.1 0.1 2.1 36.4 20.8 12.1 8.0 0.1 0.1 0.4 0.9 0.1 9.7 2.0 6.4 6.2 3.4 5.6 10.8 6.4 3.8 1.3 1.1 3.5 3.0 0.2 0.0 0.0 0.3 0.4 0.4 0.6 1.0 1.7 0.9 1.0
0.0 0.5 4.1 22.2 1.2 0.1 0.1 0.2 2.4 9.4 19.6 15.4 18.1 4.1 7.2 0.3 1.3 5.7 6.8 7.6 10.5 14.8 8.7 5.9 9.1 6.2 1.5 1.0 1.5 2.7 3.1 3.2 3.3 4.7 4.8 3.1 2.4 1.2 1.1 2.0 2.5 4.3 3.8 1.6
1.2 13.1 17.5 10.3 0.5 4.6 13.3 34.6 37.5 33.0 39.3 18.5 9.8 7.2 5.2 0.5 6.6 7.7 7.4 14.1 10.5 18.2 6.2 8.1 9.9 4.1 0.9 0.1 0.5 0.3 1.1 2.1 3.2 5.5 6.1 6.7 8.3 7.1 4.9 2.3 2.0 2.0 2.9 4.8
4.9 5.5 7.4 8.7 14.8 28.9 42.9 35.1 17.7 21.4 21.3 13.2 8.3 2.3 0.8 2.9 4.3 13.1 15.3 19.9 14.2 15.9 3.0 11.5 5.8 1.2 0.4 0.4 0.8 1.1 1.5 2.6 3.7 4.9 7.0 6.2 5.9 5.0 4.4 4.3 4.6 4.3 4.4 4.1
5.1 13.5 31.6 28.0 24.7 36.5 26.7 14.6 8.4 10.3 5.6 3.9 3.9 4.8 2.9 4.9 7.5 17.9 17.6 24.2 17.5 4.7 13.0 3.1 2.3 0.1 0.3 1.3 1.4 1.1 0.4 1.4 2.2 3.8 4.1 4.3 2.9 2.1 3.6 3.5 3.7 4.1 4.2 5.7
24.1 39.4 47.5 31.1 21.7 10.0 5.2 4.1 4.1 1.4 3.2 3.2 1.7 5.8 7.6 6.5 12.8 10.9 23.0 6.7 10.0 13.9 6.4 2.3 1.0 1.8 2.2 1.7 1.4 2.4 1.8 2.4 3.9 6.1 5.1 3.6 4.0 3.7 3.3 5.2 5.9 6.2 8.0 9.2
38.8 33.4 30.4 15.2 6.5 4.5 3.7 2.4 3.0 4.5 4.1 4.9 4.5 5.9 6.6 10.2 19.0 14.5 13.4 19.1 10.6 3.6 3.1 2.1 3.6 4.1 4.4 4.9 4.5 4.8 4.1 5.0 7.0 9.3 7.1 6.6 4.6 4.5 6.0 8.3 7.4 6.7 7.3 9.9
32.2 29.1 18.0 6.4 3.7 5.0 5.3 4.4 5.9 5.7 5.6 5.4 11.5 15.5 17.8 20.6 20.2 19.7 10.1 9.1 5.6 4.9 6.0 6.4 6.4 5.9 5.8 6.4 8.7 11.3 11.8 12.9 12.2 15.5 17.0 13.6 11.0 11.6 11.9 8.8 9.1 8.8 8.3 10.0
37.4 17.3 7.4 8.4 9.2 9.4 10.2 8.1 8.6 6.1 10.7 12.9 18.1 27.5 17.2 10.7 14.6 6.7 2.9 4.8 4.8 6.6 7.8 8.4 7.4 8.1 8.6 8.2 8.7 12.7 14.6 17.6 14.7 15.7 16.7 18.9 15.9 9.6 4.8 7.8 9.1 7.4 7.0 7.9